Home > Weather > Samarkand > Past weeks

Flag for Uzbekistan Past Weather in Samarkand, Uzbekistan — Yesterday and Last 2 Weeks

Now
70 °F

Clear.


Feels Like: 70 °F
Forecast: 67 / 98 °F
Wind: 5 mph from Southeast

Location: Samarkand

Current Time: Jun 29, 2016 at 3:47:14 AM

Latest Report: Jun 29, 2016 at 2:30 AM


Visibility: 4 mi

Pressure: 29.83 "Hg (27.43 "Hg at 721m altitude)

Humidity: 43%

Dew Point: 46 °F

Location of SamarkandLocation

Past Weather in Samarkand — Graph

°F

Samarkand Temperature Yesterday

Maximum temperature yesterday: 88 °F (at 2:30 PM)
Minimum temperature yesterday: 66 °F (at 12:30 AM)
Average temperature yesterday: 78 °F

High & Low Weather Summary for the Past Weeks

 TemperatureHumidityPressure
High93 °F (Jun 14, 11:30 AM)94% (Jun 15, 4:30 AM)30.07 "Hg (Jun 15, 4:30 AM)
Low55 °F (Jun 23, 5:30 AM)14% (Jun 26, 12:00 PM)29.68 "Hg (Jun 14, 2:30 AM)
Average76 °F42%29.89 "Hg
* Reported Jun 14 2:30 AM — Jun 29 2:00 AM, Samarkand, Weather by CustomWeather, © 2016

Note: Actual official high and low records may vary slightly from our data, if they occured in-between our weather recording intervals... More about our weather records

Advertising

Samarkand Weather History for the Previous 24 Hours

Scroll right to see more
 ConditionsComfort  
Time TempWeatherWind HumidityBarometerVisibility
2:00 AM
Wed, Jun 29
72 °FClear.7 mph38%29.83 "Hg4 mi
1:00 AM73 °FClear.7 mph33%29.83 "Hg4 mi
12:00 AM75 °FClear.7 mph29%29.83 "Hg4 mi
11:30 PM
Tue, Jun 28
75 °FClear.9 mph29%29.83 "Hg4 mi
11:00 PM75 °FClear.9 mph29%29.83 "Hg4 mi
10:30 PM75 °FClear.7 mph31%29.83 "HgN/A
10:00 PM75 °FClear.7 mph31%29.83 "Hg4 mi
9:30 PM77 °FClear.5 mph30%29.83 "HgN/A
9:00 PM77 °FClear.8 mph28%29.83 "Hg4 mi
8:30 PM79 °FClear.7 mph26%29.83 "HgN/A
8:00 PM81 °FClear.7 mph24%29.83 "HgN/A
7:30 PM82 °FClear.9 mph23%29.83 "HgN/A
7:00 PM84 °FClear.14 mph20%29.83 "HgN/A
6:30 PM84 °FClear.13 mph22%29.83 "HgN/A
6:00 PM86 °FClear.14 mph20%29.83 "HgN/A
5:30 PM86 °FClear.14 mph22%29.83 "HgN/A
5:00 PM88 °FClear.8 mph21%29.83 "HgN/A
4:30 PM88 °FClear.6 mph19%29.83 "HgN/A
4:00 PM88 °FClear.7 mph22%29.83 "HgN/A
3:30 PM88 °FClear.6 mph19%29.86 "HgN/A
3:00 PM88 °FClear.5 mph24%29.86 "HgN/A
2:30 PM88 °FClear.6 mph21%29.86 "HgN/A
2:00 PM86 °FClear.5 mph25%29.86 "HgN/A
1:30 PM86 °FClear.3 mph24%29.86 "HgN/A
1:00 PM84 °FClear.6 mph22%29.86 "HgN/A
12:30 PM84 °FClear.8 mph20%29.86 "HgN/A
12:00 PM82 °FClear.9 mph23%29.89 "HgN/A
11:30 AM82 °FClear.9 mph20%29.86 "HgN/A
11:00 AM82 °FClear.14 mph20%29.89 "HgN/A
10:30 AM82 °FClear.16 mph20%29.89 "HgN/A
10:00 AM81 °FClear.18 mph18%29.89 "HgN/A
9:30 AM81 °FClear.17 mph21%29.89 "HgN/A
9:00 AM79 °FClear.12 mph26%29.89 "HgN/A
8:30 AM75 °FClear.9 mph34%29.89 "HgN/A
8:00 AM73 °FClear.8 mph36%29.89 "HgN/A
7:30 AM72 °FClear.7 mph38%29.89 "HgN/A
7:00 AM70 °FClear.8 mph38%29.89 "HgN/A
6:30 AM68 °FClear.7 mph40%29.89 "HgN/A
6:00 AM68 °FClear.7 mph38%29.89 "HgN/A
5:00 AM70 °FClear.12 mph31%29.89 "HgN/A
4:30 AM70 °FClear.13 mph31%29.86 "Hg4 mi
4:00 AM70 °FClear.12 mph31%29.86 "Hg4 mi
3:30 AM70 °FClear.9 mph33%29.86 "Hg4 mi
3:00 AM68 °FClear.8 mph38%29.86 "Hg4 mi
Weather by CustomWeather, © 2016

See weather overviewHow to use our weather pages